Voltar ao catálogo

STARLINK-11497

AtivoComunicaçõesVLEO
NORAD 62470·PAYLOAD·🇺🇸 United States

Lançado Dec 31, 2024 de Cape Canaveral Space Force Station

Loading…

Próximas Passagens (próximas 24 horas)

TLE

AtualizadoSource: CelesTrak SupGP

Época: Sep 14, 2026, 20:44 UTC

1 62470C 24254J   26257.86437500 -.00012131  00000+0 -94241-4 0  2571
2 62470  43.0005 162.7859 0001797 251.2363  68.7049 15.70839417    17

Acompanhe STARLINK-11497 em tempo real com AllMySat

Download on the App Store